Regional Weather Roundup
Issued by NWS

Home | Current Version | Previous Version | Graphics & Text | Print | Product List | Glossary On
Versions: 1 2 3 4 5 6 7 8 9 10 11 12 13 14 15 16 17 18 19 20 21 22 23 24 25 26 27 28 29 30 31 32 33 34 35 36 37 38 39 40 41 42 43 44 45 46 47 48 49 50
000
ASUS43 KIND 180959
RWRIN

WEATHER ROUNDUP FOR INDIANA
NATIONAL WEATHER SERVICE INDIANAPOLIS IN
500 AM EST SAT NOV 18 2017

NOTE: "FAIR" INDICATES FEW OR NO CLOUDS BELOW 12,000 FEET WITH NO
SIGNIFICANT WEATHER AND/OR OBSTRUCTIONS TO VISIBILITY.

* - STATION DOES NOT REPORT WEATHER SUCH AS PRECIPITATION OR FOG.

+ - STATION NOT QUALITY CONTROLLED BY THE NATIONAL WEATHER SERVICE.
    USE DATA WITH CAUTION...ESPECIALLY DEWPOINT AND RELATIVE
    HUMIDITY OBSERVATIONS.

INZ001>003-010>013-019-020-181100-
NORTHWEST INDIANA

CITY           SKY/WX    TMP DP  RH WIND       PRES   REMARKS
KNOX *+        CLOUDY    45  45 100 CALM      29.51F
LA PORTE +     CLOUDY    43  43  99 CALM      29.52F FOG
MICHIGAN CITY+ LGT RAIN  43  43 100 CALM      29.52F
MONTICELLO +   RAIN      51  50  95 S7        29.50F
RENSSELAER +   RAIN      50  45  81 CALM      29.50F

$$

LMZ046-743>745-181100-
SOUTHERN LAKE MICHIGAN

STATION/POSITION TIME  TEMP    WIND        PRES    WAVE
                       AIR SEA DIR/SP/G            HT
                 (UTC) (F)     (DEG/KT/KT) (MB)    (FT)
BURNS HARBOR     0940   47        CALM     1000.0F
MICHIGAN CITY    0930   44     130/  5/  5   N/A

$$

INZ004-005-014>016-021>024-181100-
NORTH CENTRAL INDIANA

CITY           SKY/WX    TMP DP  RH WIND       PRES   REMARKS
GOSHEN         CLOUDY    45  42  89 CALM      29.53S FOG
SOUTH BEND     CLOUDY    43  43 100 CALM      29.53F FOG
WARSAW +       LGT RAIN  46  45  93 CALM      29.52F

$$

INZ006>009-017-018-025>027-181100-
NORTHEAST INDIANA

CITY           SKY/WX    TMP DP  RH WIND       PRES   REMARKS
AUBURN +       CLOUDY    45  43  93 CALM      29.54F FOG
FORT WAYNE     CLOUDY    50  47  89 S6        29.53F
KENDALLVILLE + CLOUDY    46  46  99 SW3       29.53F

$$

INZ028-029-035-036-043>045-051>053-181100-
WEST CENTRAL INDIANA

CITY           SKY/WX    TMP DP  RH WIND       PRES   REMARKS
CRAWFORDSVL +  CLOUDY    55  51  89 SW16G28   29.49F
GREENCASTLE +  CLOUDY    59  48  67 SW10G25   29.53S
LAFAYETTE      RAIN      52  51  97 NW10      29.50S FOG
TERRE HAUTE    LGT RAIN  60  51  72 S21G30    29.52F

$$

INZ030>032-037>040-046>048-054>057-064-065-181100-
CENTRAL INDIANA

CITY           SKY/WX    TMP DP  RH WIND       PRES   REMARKS
FRANKFORT +    CLOUDY    56  52  86 SW15      29.50F
GREENWOOD *+   CLOUDY    58  51  78 S9        29.55F
INDIANAPOLIS   CLOUDY    60  52  74 SW16G28   29.54F
-EAGLE CREEK   CLOUDY    58  51  78 S10G20    29.51F
KOKOMO +       TSTM      48  47  96 S8        29.52F FOG
SHELBYVILLE    LGT RAIN  55  44  66 S17       29.55F

$$

INZ033-034-041-042-049-050-058-059-181100-
EAST CENTRAL INDIANA

CITY           SKY/WX    TMP DP  RH WIND       PRES   REMARKS
MUNCIE         LGT RAIN  53  46  77 S13G25    29.53F
RICHMOND +     CLOUDY    50  45  81 S17       29.59F

$$

INZ060-061-067>069-081>083-085>088-181100-
SOUTHWEST INDIANA

CITY           SKY/WX    TMP DP  RH WIND       PRES   REMARKS
EVANSVILLE     CLOUDY    63  55  75 S14G23    29.60F
HUNTINGBURG +  CLOUDY    61  52  72 S18G29    29.61F

$$

INZ062-063-066-070>080-084-089>092-181100-
SOUTH CENTRAL AND SOUTHEAST INDIANA

CITY           SKY/WX    TMP DP  RH WIND       PRES   REMARKS
BLOOMINGTON    CLOUDY    62  50  64 SW22G31   29.56F
SEYMOUR +      CLOUDY    59  46  63 S15       29.60F

$$





USA.gov is the U.S. government's official web portal to all federal, state and local government web resources and services.